CZ-11 R/B, 43161

Orbit data source: Space-Track

CZ-11 R/B, 43161 is space debris in SSO originally from a launch on Fri, 19 Jan 2018 UTC launched from the Jiuquan Satellite Launch Center, China (JSC). Debris objects in space refer to the collection of defunct objects orbiting the Earth. Examples of debris include non-operational satellites, rocket bodies, and fragments generated from explosions, collisions, or faulty payload assembly.

Loading next visibility...
Identifier
43161, 2018-008G
Orbit
SSO
Country
Flag of CNCN / PRC
Related business
Manufacturer
CALT
Mission
Spacecraft
Bus & Motor
CZ-11-4, Unknown motor
Mass
500 kg wet, 500 kg dry
Launch date (UTC)
2018-01-19 (8 years ago)
Launch vehicle
Unknown
Launch site
Jiuquan Satellite Launch Center, China (JSC)
Object type
Payload
Rocket body
Debris
Shape & HBR
Cyl, 0.8 m
Radar Cross Section
2.651 m², Large (>1 m²)

Expand to show TLE details & history
Last TLE update: 7 hours ago

TLE from 7 hours ago
0 CZ-11 R/B
1 43161U 18008G   25353.83044661  .00000662  00000-0  13000-3 0  9993
2 43161  98.2274 342.3886 0362156 265.4406  90.5335 14.32079703412999
Epoch: 2025-12-19T19:55Z
TLE epoch observation values (Epoch: 2025-12-19T19:55:50.587Z)
Latitude
-0.00001°
Longitude
-45.23815°
Altitude
799.536 km
Speed
7.448 km/s
True Right ascension
22h 49m 33s
True Declination
0° 00' 00"
Sunlit
Object was in daylight at epoch
Visualization orbit readout
Latitude
Unknown
Longitude
Unknown
Altitude
Unknown
Speed
Unknown
Apparent Right ascension
Unknown
Apparent Declination
Unknown
Sunlit
N/A
Visualization observer readout
Local Sidereal Time
01:25:22
Azimuth
Unknown
Elevation
Unknown
Doppler factor
Unknown
Orbital elements
Apogee altitude
1,041.207 km
Perigee altitude
522.597 km
Semi-major axis
7,160.039 km
Eccentricity
0.03622
Inclination
98.2274°
RAAN
342.3886°
Arg. of periapsis
265.4406°
True anomaly
94.67796°
Mean anomaly
90.5335°
Eccentric anomaly
92.60635°
Mean motion
3.58237 °/min
Orbital period
100.49 mins
BSTAR
0.00013
Loading maneuver chart data...
Computing Atmospheric mass density...
Loading historical data...
Loading historical data...
Loading historical data...
Loading historical data...
Loading historical data...
Loading historical data...
Loading historical data...

Documentation

Showing up to 5 results
|